Regional Weather Roundup
Issued by NWS

Home | Current Version | Previous Version | Graphics & Text | Print | Product List | Glossary On
Versions: 1 2 3 4 5 6 7 8 9 10 11 12 13 14 15 16 17 18 19 20 21 22 23 24 25 26 27 28 29 30 31 32 33 34 35 36 37 38 39 40 41 42 43 44 45 46 47 48 49 50
000
ASUS45 KBOU 190707
RWRCO

WEATHER ROUNDUP FOR COLORADO
NATIONAL WEATHER SERVICE DENVER/BOULDER CO
100 AM MDT FRI SEP 19 2014

NOTE: "FAIR" INDICATES FEW OR NO CLOUDS BELOW 12000 FEET WITH NO
SIGNIFICANT WEATHER AND/OR OBSTRUCTIONS TO VISIBILITY.

COZ001>005-013-030-031-190800-
...NORTHWEST COLORADO...

CITY           SKY/WX    TMP DP  RH WIND       PRES   REMARKS
CRAIG          CLEAR     47  41  80 E3        30.05R
HAYDEN         CLEAR     55  37  50 E10       30.07R
MEEKER         CLEAR     56  39  53 NE8       30.07S
MOUNT WERNER   NOT AVBL
STEAMBOAT SPGS MOCLDY    52  40  65 CALM      30.10R
WALDEN         PTCLDY    43  34  70 SE7       30.17S
$$

COZ006>008-011-190800-
...WEST CENTRAL VALLEYS...

CITY           SKY/WX    TMP DP  RH WIND       PRES   REMARKS
GRAND JUNCTION CLEAR     65  43  44 E7        29.93S
MONTROSE       CLEAR     63  44  50 SE9       30.05R
EAGLE          CLEAR     55  41  58 CALM      30.11R
RIFLE          CLEAR     56  42  59 SE5       30.01S
DELTA          PTCLDY    67  40  37 E7        29.99S
NUCLA          CLEAR     61  41  48 E9        30.08S
$$

COZ017>023-064>068-190800-
...SOUTHWEST COLORADO...

CITY           SKY/WX    TMP DP  RH WIND       PRES   REMARKS
DURANGO        CLEAR     52  41  66 E3        30.12R
CORTEZ         CLEAR     52  44  74 E5        30.05S
PAGOSA SPRINGS CLEAR     54  33  43 CALM      30.22R
TELLURIDE      NOT AVBL
WOLF CREEK PAS CLEAR     45  30  57 SW16      30.48F
$$

COZ009-010-012-014-032>034-037-058>063-190800-
...CENTRAL COLORADO...

CITY           SKY/WX    TMP DP  RH WIND       PRES   REMARKS
ASPEN          CLEAR     51  37  58 S7        30.18R
BUENA VISTA    CLEAR     49  30  48 NW6       30.23S
COPPER MTN     NOT AVBL
BERTHOUD PASS  FAIR      43  41  93 W14       30.54S
COTTONWOOD PAS CLEAR     57  27  30 CALM      30.35S
GUNNISON       CLEAR     50  34  53 CALM      30.21S
KREMMLING      PTCLDY    50  37  62 CALM      30.16S
LEADVILLE      CLEAR     42  26  53 NE3       30.34S
SALIDA         CLEAR     55  33  43 W9        30.27S
SUNLIGHT       CLEAR     54  34  47 CALM      30.40F
WILKERSON PASS NOT AVBL
$$

COZ069>075-190800-
...SAN LUIS VALLEY/SANGRE DE CRISTO MOUNTAINS...

CITY           SKY/WX    TMP DP  RH WIND       PRES   REMARKS
ALAMOSA        CLEAR     50  38  63 S9        30.17F
LA VETA PASS   CLEAR     54  27  35 E6        30.36F
SAGUACHE       NOT AVBL
$$

COZ035-036-038>040-190800-
...NORTHERN COLORADO FRONT RANGE...

CITY           SKY/WX    TMP DP  RH WIND       PRES   REMARKS
DENVER INTL AP CLEAR     69  37  30 S17       29.97S
DMNS CITY PARK   N/A     71  35  26 S9        29.96F
AURORA         CLEAR     70  36  28 S16       30.00S
FRONT RANGE AP NOT AVBL
ERIE MUNI ARPT CLEAR     67  35  31 S7        29.93S
BOULDER MUN AP CLEAR     61  41  48 SW7       29.93F
CENTENNIAL     CLEAR     65  36  34 S10       30.02R
BROOMFIELD     CLEAR     64  37  36 S10       29.98S
FORT COLLINS   CLEAR     61  45  55 N6        29.95R
LONGMONT       CLEAR     56  44  63 CALM      29.95S
$$

COZ041-046-047-076>085-087-088-190800-
...PIKES PEAK/PALMER DIVIDE AND SOUTHERN FOOTHILLS...

CITY           SKY/WX    TMP DP  RH WIND       PRES   REMARKS
COLO. SPRINGS  CLEAR     59  46  62 E9        30.10F
A. F. ACADEMY  CLEAR     59  40  49 N1        30.11S
ELLICOTT       NOT AVBL
FALCON         CLEAR     54  42  66 SW3       30.15S
FORT CARSON    CLEAR     57  45  62 SE7       30.07F
LIMON          CLEAR     56  49  77 VRB3      30.04R
MONUMENT HILL  CLEAR     61  39  44 S17       30.11S
TRINIDAD       CLEAR     63  53  70 W9        30.08F
$$

COZ042>045-048>051-090-091-190800-
...NORTHEAST COLORADO...

CITY           SKY/WX    TMP DP  RH WIND       PRES   REMARKS
GREELEY ARPT   CLEAR     63  39  42 CALM      29.93S
AKRON          CLEAR     68  52  56 S15G26    29.95R
BURLINGTON     CLEAR     66  55  67 SW14      29.97F
WRAY           CLEAR     67  56  69 SW9       29.90F
STERLING       CLEAR     63  54  72 S7        29.89S
HOLYOKE        CLEAR     59  55  88 S5        29.90S
FORT MORGAN    CLEAR     66  48  52 S8        29.93S
$$

COZ086-089-092>099-190800-
...SOUTHEAST COLORADO...

CITY           SKY/WX    TMP DP  RH WIND       PRES   REMARKS
PUEBLO         CLEAR     61  49  64 NE7       30.00S
LA JUNTA       CLEAR     64  56  75 SW9       29.98F
LAMAR          CLEAR     60  57  89 SE5       29.96F
SPRINGFIELD      N/A     59  59 100 S12       30.04F
$$


USA.gov is the U.S. government's official web portal to all federal, state and local government web resources and services.